• In Hungary
  • List of Countries
  • For 7 days
  • Water Temperature
  • Satellite Maps
  • Weather Map
  • News
  • Weather Widgets
  • user-avatar
    Login

    Hourly Weather Puente del Inca

    Today, 19 August, Sunday

    Time Temperature Precipitation Wind Pressure Humidity
    00:00 -15°C° 0 mm 2 mps 480 mmHg 51%
    01:00 -16°C° 0 mm 2 mps 480 mmHg 46%
    02:00 -17°C° 0 mm 2 mps 480 mmHg 45%
    03:00 -17°C° 0 mm 2 mps 480 mmHg 44%
    04:00 -17°C° 0 mm 2 mps 479 mmHg 42%
    05:00 -17°C° 0 mm 2 mps 480 mmHg 43%
    06:00 -17°C° 0 mm 2 mps 480 mmHg 44%
    07:00 -18°C° 0 mm 3 mps 480 mmHg 55%
    08:00 -16°C° 0 mm 3 mps 482 mmHg 55%
    09:00 -14°C° 0 mm 3 mps 483 mmHg 54%
    10:00 -12°C° 0 mm 3 mps 484 mmHg 54%
    11:00 -10°C° 0 mm 3 mps 485 mmHg 52%
    12:00 -9°C° 0 mm 3 mps 485 mmHg 51%
    13:00 -8°C° 0 mm 3 mps 485 mmHg 49%
    14:00 -9°C° 0 mm 3 mps 484 mmHg 50%
    15:00 -9°C° 0 mm 3 mps 484 mmHg 52%
    16:00 -9°C° 0 mm 2 mps 483 mmHg 54%
    17:00 -12°C° 0 mm 3 mps 483 mmHg 57%
    18:00 -14°C° 0 mm 3 mps 482 mmHg 61%
    19:00 -16°C° 0 mm 3 mps 481 mmHg 64%
    20:00 -16°C° 0 mm 3 mps 481 mmHg 62%
    21:00 -16°C° 0 mm 3 mps 480 mmHg 61%
    22:00 -16°C° 0 mm 3 mps 480 mmHg 59%
    23:00 -16°C° 0 mm 3 mps 480 mmHg 54%

    Tomorrow, 20 August, Monday

    Time Temperature Precipitation Wind Pressure Humidity
    00:00 -16°C° 0 mm 3 mps 480 mmHg 50%
    01:00 -16°C° 0 mm 3 mps 480 mmHg 46%
    02:00 -15°C° 0 mm 2 mps 479 mmHg 39%
    03:00 -15°C° 0 mm 2 mps 479 mmHg 33%
    04:00 -15°C° 0 mm 2 mps 479 mmHg 26%
    05:00 -15°C° 0 mm 2 mps 479 mmHg 23%
    06:00 -14°C° 0 mm 2 mps 480 mmHg 20%
    07:00 -13°C° 0 mm 2 mps 480 mmHg 17%
    08:00 -9°C° 0 mm 1 mps 482 mmHg 20%
    09:00 -6°C° 0 mm 1 mps 484 mmHg 23%
    10:00 -2°C° 0 mm 1 mps 486 mmHg 26%
    11:00 -2°C° 0 mm 1 mps 486 mmHg 28%
    12:00 -1°C° 0 mm 1 mps 486 mmHg 29%
    13:00 -3°C° 0 mm 2 mps 487 mmHg 30%
    14:00 -3°C° 0 mm 2 mps 486 mmHg 30%
    15:00 -4°C° 0 mm 2 mps 485 mmHg 30%
    16:00 -5°C° 0 mm 2 mps 484 mmHg 29%
    17:00 -7°C° 0 mm 2 mps 483 mmHg 28%
    18:00 -9°C° 0 mm 2 mps 482 mmHg 27%
    19:00 -10°C° 0 mm 2 mps 481 mmHg 26%
    20:00 -12°C° 0 mm 2 mps 481 mmHg 22%
    21:00 -12°C° 0 mm 2 mps 481 mmHg 18%
    22:00 -12°C° 0 mm 2 mps 481 mmHg 14%
    23:00 -12°C° 0 mm 2 mps 481 mmHg 12%

    Day after tomorrow, 21 August, Tuesday

    Time Temperature Precipitation Wind Pressure Humidity
    00:00 -12°C° 0 mm 2 mps 481 mmHg 11%
    01:00 -12°C° 0 mm 2 mps 480 mmHg 9%
    02:00 -12°C° 0 mm 2 mps 480 mmHg 10%
    03:00 -13°C° 0 mm 3 mps 480 mmHg 10%
    04:00 -13°C° 0 mm 3 mps 480 mmHg 10%
    05:00 -13°C° 0 mm 3 mps 480 mmHg 11%
    06:00 -13°C° 0 mm 3 mps 481 mmHg 13%
    07:00 -12°C° 0 mm 3 mps 481 mmHg 14%
    08:00 -8°C° 0 mm 2 mps 483 mmHg 16%
    09:00 -3°C° 0 mm 1 mps 485 mmHg 19%
    10:00 0°C° 0 mm 1 mps 487 mmHg 22%
    11:00 0°C° 0 mm 1 mps 487 mmHg 23%
    12:00 +1°C° 0 mm 1 mps 488 mmHg 24%
    13:00 +1°C° 0 mm 2 mps 488 mmHg 25%
    14:00 -1°C° 0 mm 2 mps 487 mmHg 25%
    15:00 0°C° 0 mm 1 mps 486 mmHg 24%
    16:00 -1°C° 0 mm 1 mps 485 mmHg 24%
    17:00 -5°C° 0 mm 2 mps 484 mmHg 23%
    18:00 -7°C° 0 mm 2 mps 483 mmHg 22%
    19:00 -9°C° 0 mm 2 mps 481 mmHg 20%
    20:00 -9°C° 0 mm 2 mps 482 mmHg 17%
    21:00 -9°C° 0 mm 2 mps 482 mmHg 13%
    22:00 -9°C° 0 mm 2 mps 482 mmHg 9%
    23:00 -8°C° 0 mm 2 mps 482 mmHg 9%

    22 August, Wednesday

    Time Temperature Precipitation Wind Pressure Humidity
    00:00 -8°C° 0 mm 2 mps 481 mmHg 9%
    01:00 -9°C° 0 mm 3 mps 481 mmHg 9%
    02:00 -9°C° 0 mm 3 mps 481 mmHg 11%
    03:00 -9°C° 0 mm 3 mps 481 mmHg 13%
    04:00 -9°C° 0 mm 3 mps 480 mmHg 15%
    05:00 -9°C° 0 mm 3 mps 481 mmHg 15%
    06:00 -9°C° 0 mm 3 mps 481 mmHg 15%
    07:00 -8°C° 0 mm 3 mps 481 mmHg 15%
    08:00 -6°C° 0 mm 3 mps 483 mmHg 18%
    09:00 -3°C° 0 mm 4 mps 485 mmHg 21%
    10:00 -1°C° 0 mm 4 mps 486 mmHg 24%
    11:00 -1°C° 0 mm 4 mps 486 mmHg 24%
    12:00 -1°C° 0 mm 5 mps 485 mmHg 24%
    13:00 0°C° 0 mm 5 mps 485 mmHg 23%
    14:00 -2°C° 0 mm 5 mps 484 mmHg 25%
    15:00 -4°C° 0 mm 5 mps 482 mmHg 27%
    16:00 -6°C° 0 mm 5 mps 481 mmHg 28%
    17:00 -7°C° 0 mm 5 mps 480 mmHg 35%
    18:00 -10°C° 0 mm 5 mps 479 mmHg 42%
    19:00 -11°C° 0 mm 4 mps 478 mmHg 49%
    20:00 -12°C° 0 mm 5 mps 478 mmHg 54%
    21:00 -12°C° 0 mm 5 mps 477 mmHg 59%
    22:00 -13°C° 0 mm 5 mps 477 mmHg 64%
    23:00 -13°C° 0 mm 5 mps 477 mmHg 66%

    23 August, Thursday

    Time Temperature Precipitation Wind Pressure Humidity
    00:00 -15°C° 0 mm 6 mps 476 mmHg 69%
    01:00 -15°C° 0 mm 6 mps 476 mmHg 71%
    02:00 -16°C° 0 mm 6 mps 475 mmHg 70%
    03:00 -17°C° 0 mm 6 mps 475 mmHg 69%
    04:00 -18°C° 0 mm 5 mps 474 mmHg 69%
    05:00 -18°C° 0 mm 5 mps 475 mmHg 66%
    06:00 -18°C° 0 mm 5 mps 476 mmHg 63%
    07:00 -17°C° 0 mm 5 mps 476 mmHg 61%
    08:00 -16°C° 0.1 mm 6 mps 477 mmHg 61%
    09:00 -15°C° 0.1 mm 6 mps 478 mmHg 62%
    10:00 -12°C° 0.1 mm 6 mps 480 mmHg 63%
    11:00 -13°C° 0.1 mm 7 mps 479 mmHg 63%
    12:00 -13°C° 0.1 mm 7 mps 479 mmHg 64%
    13:00 -13°C° 0.1 mm 7 mps 479 mmHg 65%
    14:00 -14°C° 0.2 mm 7 mps 479 mmHg 67%
    15:00 -15°C° 0.2 mm 6 mps 479 mmHg 69%
    16:00 -16°C° 0.2 mm 6 mps 478 mmHg 72%
    17:00 -17°C° 0.1 mm 5 mps 478 mmHg 74%
    18:00 -17°C° 0.1 mm 4 mps 478 mmHg 77%
    19:00 -18°C° 0.1 mm 4 mps 478 mmHg 79%
    20:00 -20°C° 0 mm 4 mps 477 mmHg 72%
    21:00 -22°C° 0 mm 4 mps 477 mmHg 66%
    22:00 -23°C° 0 mm 4 mps 476 mmHg 59%
    23:00 -23°C° 0 mm 4 mps 477 mmHg 48%

    24 August, Friday

    Time Temperature Precipitation Wind Pressure Humidity
    00:00 -23°C° 0 mm 4 mps 477 mmHg 36%
    01:00 -22°C° 0 mm 4 mps 478 mmHg 25%
    02:00 -22°C° 0 mm 4 mps 478 mmHg 24%
    03:00 -20°C° 0 mm 4 mps 478 mmHg 23%
    04:00 -20°C° 0 mm 4 mps 479 mmHg 22%
    05:00 -19°C° 0 mm 4 mps 479 mmHg 22%
    06:00 -18°C° 0 mm 4 mps 480 mmHg 22%
    07:00 -16°C° 0 mm 3 mps 481 mmHg 22%
    08:00 -13°C° 0 mm 3 mps 483 mmHg 26%
    09:00 -9°C° 0 mm 3 mps 485 mmHg 30%
    10:00 -5°C° 0 mm 2 mps 487 mmHg 33%
    11:00 -4°C° 0 mm 2 mps 488 mmHg 34%
    12:00 -5°C° 0 mm 3 mps 488 mmHg 35%
    13:00 -4°C° 0 mm 3 mps 488 mmHg 36%
    14:00 -3°C° 0 mm 2 mps 488 mmHg 37%
    15:00 -4°C° 0 mm 2 mps 487 mmHg 38%
    16:00 -5°C° 0 mm 2 mps 487 mmHg 39%
    17:00 -6°C° 0 mm 2 mps 486 mmHg 38%
    18:00 -8°C° 0 mm 2 mps 485 mmHg 37%
    19:00 -8°C° 0 mm 1 mps 484 mmHg 36%
    20:00 -9°C° 0 mm 2 mps 484 mmHg 32%
    21:00 -8°C° 0 mm 2 mps 484 mmHg 27%
    22:00 -8°C° 0 mm 2 mps 484 mmHg 23%
    23:00 -8°C° 0 mm 2 mps 484 mmHg 23%
    Show more